Regional Weather Roundup
Issued by NWS

Home | Current Version | Previous Version | Text Only | Print | Product List | Glossary Off
Versions: 1 2 3 4 5 6 7 8 9 10 11 12 13 14 15 16 17 18 19 20 21 22 23 24 25 26 27 28 29 30 31 32 33 34 35 36 37 38 39 40 41 42 43 44 45 46 47 48 49 50

323
ASUS43 KTOP 241508
RWRKS

WEATHER ROUNDUP FOR KANSAS
NATIONAL WEATHER SERVICE GOODLAND KS
1000 AM CDT SUN SEP 24 2017

NOTE:  "FAIR" INDICATES FEW OR NO CLOUDS BELOW 12,000 FEET WITH NO
SIGNIFICANT WEATHER AND/OR OBSTRUCTIONS TO VISIBILITY.

KSZ001>006-013>018-027>032-041>047-241600-
NORTHWEST KANSAS

CITY           SKY/WX    TMP DP  RH WIND       PRES   REMARKS
GOODLAND       CLOUDY    49  48  97 N12       29.98R
HAYS           CLOUDY    69  60  73 W9        29.93S
HILL CITY      LGT RAIN  64  63  96 SW7       29.93R FOG
RUSSELL        CLOUDY    74  63  68 SW12      29.91R
$$

KSZ061>065-074>080-084>089-241600-
SOUTHWEST KANSAS

CITY           SKY/WX    TMP DP  RH WIND       PRES   REMARKS
DODGE CITY     LGT RAIN  63  61  93 E5        29.95S FOG
ELKHART          N/A     60  62 100 E13         N/A
GARDEN CITY    CLOUDY    62  60  93 E6        29.93S
GREAT BEND     PTSUNNY   74  64  71 SW15G21   29.94R
LIBERAL        LGT RAIN  63  62  97 SE9       29.93S
PRATT          CLOUDY    71  63  74 S14       29.94R
$$

KSZ066>073-081>083-090>101-241600-
SOUTHEAST KANSAS

CITY           SKY/WX    TMP DP  RH WIND       PRES   REMARKS
CHANUTE        SUNNY     80  69  69 S9        29.99R
COFFEYVILLE    SUNNY     81  69  67 S10       29.97R
HUTCHINSON     CLOUDY    77  66  68 S14       29.94R
MEDICINE LODGE   N/A     77  64  64 S12       29.92R
NEWTON         SUNNY     79  66  64 S16       29.96R
PARSONS        SUNNY     79  67  66 S10       29.99R
WICHITA INTL   PTSUNNY   81  67  62 S17       29.95R
WICHITA JABRA  MOSUNNY   78  67  68 S14       29.96R
WICHITA MCCONL MOSUNNY   78  65  63 SW16      29.96R
WINFIELD       MOSUNNY   78  68  71 S12       29.97R
$$

KSZ007>012-019>026-033>040-048>060-102>105-241600-
NORTHEAST KANSAS

CITY           SKY/WX    TMP DP  RH WIND       PRES   REMARKS
CONCORDIA      MOSUNNY   77  66  68 S17       29.92R
EMPORIA        SUNNY     77  66  68 S15       29.96R
LAWRENCE       SUNNY     79  69  71 S8        29.97R
MANHATTAN      SUNNY     81  66  60 SW14      29.93S
MARYSVILLE     SUNNY     81  64  57 S13       29.94S
OLATHE IND     SUNNY     78  67  68 S10       29.99S
OLATHE EXE     SUNNY     76  69  79 S8        29.99S
SALINA         SUNNY     83  65  54 S16G24    29.93R
TOPEKA BILLARD SUNNY     80  69  69 S10       29.95S
TOPEKA FORBES  SUNNY     80  68  66 S12       29.97R
$$




USA.gov is the U.S. government's official web portal to all federal, state and local government web resources and services.